Regional Weather Roundup
Issued by NWS

Home | Current Version | Previous Version | Text Only | Print | Product List | Glossary On
Versions: 1 2 3 4 5 6 7 8 9 10 11 12 13 14 15 16 17 18 19 20 21 22 23 24 25 26 27 28 29 30 31 32 33 34 35 36 37 38 39 40 41 42 43 44 45 46 47 48 49 50
000
ASUS44 KLUB 051410
RWRTX
WEST TEXAS WEATHER ROUNDUP
NATIONAL WEATHER SERVICE LUBBOCK TX
900 AM CDT TUE MAY 05 2015

NOTE: "FAIR" INDICATES FEW OR NO CLOUDS BELOW 12,000 FEET WITH NO
SIGNIFICANT WEATHER AND/OR OBSTRUCTIONS TO VISIBILITY.

TXZ004-006>008-010-012-014-016-OKZ002-051500-
TEXAS PANHANDLE/OKLAHOMA PANHANDLE

CITY           SKY/WX    TMP DP  RH WIND       PRES   REMARKS
AMARILLO       RAIN      56  56 100 SW7       29.91R FOG
BORGER         CLOUDY    57  55  93 N3        29.89S
CANADIAN       LGT RAIN  60  59  95 SE20      29.91S
DALHART        LGT RAIN  54  53  97 NE6       29.92F VSB 1
DUMAS          DRIZZLE   54  53  97 N5        29.91S
GUYMON         HVY RAIN  57  56  96 N10       29.89F FOG
HEREFORD       RAIN      56  56  97 MISG      29.94R
PAMPA          CLOUDY    57  55  94 S25G31    29.92R FOG
PERRYTON       CLOUDY    58  56  94 SE20G30   29.91S
$$

TXZ026-029-035-045-048-051500-
SOUTHERN PANHANDLE/SOUTH PLAINS/ROLLING PLAINS

CITY           SKY/WX    TMP DP  RH WIND       PRES   REMARKS
CHILDRESS      CLOUDY    62  60  93 SE18      29.93R
SEMINOLE       PTSUNNY   55  54  98 E8        29.91S
LUBBOCK        LGT RAIN  55  52  89 N20G29    29.88F
PLAINVIEW      HVY RAIN  55  53  94 NW13      29.93S
SNYDER         CLOUDY    62  60  94 SE16G24   29.93R
$$

TXZ052-054-060>062-072-078-127-140-154-169-051500-
PERMIAN BASIN/CONCHO VALLEY/BIG COUNTRY/EDWARDS PLATEAU

CITY           SKY/WX    TMP DP  RH WIND       PRES   REMARKS
ABILENE        CLOUDY    68  59  73 S22G31    29.94F
BIG SPRING     CLOUDY    65  62  89 SE14      29.91S
BRADY          CLOUDY    66  61  82 SE13      29.96R
BROWNWOOD      CLOUDY    68  61  77 SE15      29.99R
JUNCTION       CLOUDY    70  62  76 SE10      29.94R
MIDLAND        TSTM      65  63  93 S20G26    29.88S FOG
ODESSA         LGT RAIN  64  61  90 S20       29.88R FOG
SAN ANGELO     CLOUDY    68  60  75 E7        29.92R
SONORA         CLOUDY    68  61  77 S17G24    29.96S
SWEETWATER     CLOUDY    64  64 100 SE14      29.95S
WINK           MOSUNNY   65  54  67 N12       29.88R
$$

TXZ055-058-074-075-080-082-051500-
FAR WEST/SOUTHWEST MOUNTAINS/TRANS PECOS

CITY           SKY/WX    TMP DP  RH WIND       PRES   REMARKS
ALPINE         SUNNY     66  47  50 W7        30.04R
DRYDEN           N/A     70  64  81 SE13G21   29.88R
EL PASO        MOSUNNY   63  40  42 W10       29.95R
FORT STOCKTON  SUNNY     68  60  75 W7        29.92R
GUADALUPE PASS MOSUNNY   53  51  93 SW8       30.01R
MARFA          SUNNY     57  52  82 NW5       30.03R
PECOS          SUNNY     64  55  73 W14       29.90R
PRESIDIO       FAIR      73  41  30 W5        29.93R
$$

TXZ014-016-019-021>030-083-051500
TEXAS TECH WEST TEXAS MESONET/TEXAS PANHANDLE/NORTHERN SOUTH PLAINS

CITY           SKY/WX    TMP DP  RH WIND       PRES   REMARKS
ABERNATHY 5ENE   N/A     54  52  93 N17       29.89F
AMARILLO 9NNE    N/A     56  55  98 NW5       29.91R
AMARILLO 7SSE    N/A     56  56  98 S1        29.93S
AMHERST 1NE      N/A     53  52  98 NW7       29.90R
BOOTLEG 11WNW    N/A     53  51  95 SE7       29.93F
CANADIAN 6E      N/A     59  58  97 SE17      29.92S
CAPROCK CYN SP   N/A     58  57  99 SE5       29.93R
CHILDRESS 2NNE   N/A     61  59  92 SE15      29.92F
CLARENDON 2WSW LGT RAIN  58  56  92 SE14      29.93S
CLAUDE 12SW      N/A     56  56 100 S14       29.93R
DIMMITT 2NE    LGT RAIN  53  51  95 SW3       29.93S
FLOYDADA 2NNE  LGT RAIN  55  54  98 SW12      29.91R
FRIONA 2NE     LGT RAIN  53  52  96 NE7       29.89F
GOODLETT 3W      N/A     62  59  89 SE15      29.93R
HART 3N        RAIN      53  51  95 S5        29.94S
HEREFORD 2NW   LGT RAIN  54  52  93 S2        29.93S
MCLEAN 1E      LGT RAIN  58  57  97 SE15      29.92F
MEMPHIS 1NE      N/A     61  60  94 SE13      29.92F
MULESHOE 2SSW    N/A     54  53  96 NE7       29.88F
OLTON 6S         N/A     53  51  92 N20       29.83F
PALO DURO SP   LGT RAIN  58  56  96 SW9       29.94R
PAMPA 2E         N/A     56  56  98 SE21      29.91S
PLAINVIEW 1S   LGT RAIN  53  53  98 W9        29.94S
SILVERTON 7ESE RAIN      57  56  97 S7        29.94R
TULIA 2ENE     RAIN      54  53  97 SW13      29.94S
TURKEY 2WSW    LGT RAIN  59  58  98 SE10      29.90R
UMBARGER 3NNE  LGT RAIN  55  55  98 S5        29.94R
$$

TXZ033>036-039>041-045>048-051500
TEXAS TECH WEST TEXAS MESONET/SOUTH PLAINS

CITY           SKY/WX    TMP DP  RH WIND       PRES   REMARKS
AIKEN 3WSW       N/A     55  54  99 W15       29.94S
ANDREWS 2NE      N/A     57  54  92 W2        29.92R
ANTON 6SSW       N/A     55  51  87 N6        29.90R
BROWNFIELD 2S    N/A     55  51  87 N6        29.88S
DENVR CTY 7WNW   N/A     54  53  95 SE7       29.92R
LAMESA 2SE     LGT RAIN  54  54  99 E7        29.92F
LEVELLAND 4S   LGT RAIN  54  50  87 N20       29.83F
LUBBOCK 3WNW     N/A     56  51  82 NE12      29.88F
MORTON 1ENE      N/A     54  52  93 NE8       29.88R
ODONNELL 1N      N/A     55  53  91 NE7       29.91F
PLAINS 3N        N/A     55  52  89 E7        29.91R
RALLS 1SE      LGT RAIN  56  55  96 NW23G33   29.90F
REESE CENTER     N/A     55  51  86 NE6       29.90R
SEAGRAVES 1SW    N/A     54  54  98 SE6       29.90S
SEMINOLE 2NNE    N/A     55  54  97 E9        29.90F
SLATON 2NE       N/A     54  54  98 N15       29.90F
SNYDER 3E        N/A     62  60  96 SE22      29.90R
SUNDOWN 8SW      N/A     54  51  90 N10       29.88F
TAHOKA 3NNE      N/A     55  53  94 N12       29.89F
WOLFFORTH 6SSW LGT RAIN  55  55  98 NE12      29.89S
$$

TXZ031-032-036>038-042>044-051500-
TEXAS TECH WEST TEXAS MESONET/ROLLING PLAINS

CITY           SKY/WX    TMP DP  RH WIND       PRES   REMARKS
ASPERMONT 3NE    N/A     63  61  93 E12       29.90F
FLUVANNA 3WNW  RAIN      56  54  91 NW12      29.95R
GRAHAM 5SSW    LGT RAIN  55  53  94 NE3       29.92R
GUTHRIE 10WSW    N/A     62  60  94 SE17      29.88F
HASKELL 1NW      N/A     62  61  94 E8        29.91F
JAYTON 1SSE      N/A     62  60  93 SE16      29.89F
KNOX CITY 3NW    N/A     65  59  83 E13       29.92S
LK A HENRY 1NW LGT RAIN  57  56  97 SW13      29.95R
NORTHFIELD 1S    N/A     61  60  98 SE13      29.90F
ODELL 4ENE       N/A     62  60  94 SE14      29.95S
PADUCAH 10SW   LGT RAIN  60  59  96 SE14      29.90F
POST 1NE       LGT RAIN  57  54  89 NW5       29.93R
RRING SPRGS 3N   N/A     59  58  98 E15       29.88F
SEYMOUR 3NW      N/A     63  59  89 E10       29.95R
SPUR 1W        RAIN      57  56  95 SW9       29.91R
WEINERT 2NNE     N/A     63  60  92 E14       29.92F
WHITE RVR 6NE    N/A     56  55  97 SE6       29.90F
$$

TXZ052-054-060>062-072-078-127-140-154-169-051500-
TEXAS TECH WEST TEXAS MESONET/PERMIAN BASIN/
CONCHO VALLEY/BIG COUNTRY/EDWARDS PLATEAU

CITY           SKY/WX    TMP DP  RH WIND       PRES   REMARKS
COYANOSA 2N      N/A     67  58  72 NW7       29.90R
JUNCTION 1SSW    N/A     70  62  76 S7        29.95S
MERTZON 3NNE     N/A     68  60  73 S16       29.93S
SAN ANGELO 7NW   N/A     64  59  85 E7        29.93S
STRLNG CT 4WSW   N/A     62  61  97 E8        29.94R
ST LAWRNCE 5SW   N/A     65  61  86 S21       29.90F
SWEETWATR 11SW   N/A     62  60  96 SE15      29.94R
WALL 1E          N/A     66  58  75 SE9       29.94R
$$

TXZ055-058-074-075-080-082-051500-
TEXAS TECH WEST TEXAS MESONET/FAR WEST/SOUTHWEST MOUNTAINS/TRANS PECOS

CITY           SKY/WX    TMP DP  RH WIND       PRES   REMARKS
PRSMN GAP BBNP   N/A     70  61  72 NW1       29.93R
$$



USA.gov is the U.S. government's official web portal to all federal, state and local government web resources and services.